Wind_Speed
57 59 64 69 76 82 92 86 87 87 82 83 87 94 96 94 89 82 77 84 88 86 86 84 85 82 78 75 76 74 66 62 64 67 62 66 65 61 61 61 60 58 52 57 57
52 55 60 64 71 79 88 95 94 98 94 88 89 87 90 93 94 88 89 88 86 89 87 85 86 84 78 79 80 77 72 67 69 71 72 69 70 64 64 61 60 59 60 61 60
46 50 56 61 64 71 77 84 90 97 99 93 92 92 91 94 93 88 85 89 91 88 89 86 82 83 78 81 86 81 74 74 74 76 78 74 72 73 69 64 64 64 64 63 65
42 47 52 59 64 66 71 76 84 94 94 99 97 91 93 95 91 86 84 87 86 86 85 86 86 83 82 81 82 83 80 81 79 80 80 77 78 73 71 64 68 67 68 68 74
34 40 46 53 59 64 71 72 74 82 89 96 102 100 97 88 90 93 92 87 86 91 91 88 88 87 84 84 83 74 76 83 82 80 81 84 83 78 71 69 69 70 71 71 76
40 42 44 47 51 57 66 73 77 79 80 84 94 105 104 99 103 93 92 92 95 96 93 91 87 91 87 88 85 74 78 76 78 77 76 80 81 79 69 71 71 75 75 75 75
50 52 53 54 55 57 60 64 70 79 83 85 86 89 94 98 106 108 95 94 96 98 95 95 94 100 88 90 85 89 88 84 76 75 72 77 76 70 70 75 75 77 78 76 78
60 62 63 64 65 65 66 68 69 70 74 81 88 89 87 96 102 108 107 103 104 96 98 98 100 95 93 89 97 88 89 77 71 77 76 87 80 70 79 81 81 80 78 75 77
62 68 71 73 74 75 76 77 76 77 78 77 79 82 89 95 98 101 109 110 105 105 102 103 106 100 101 93 90 86 81 81 85 89 85 93 92 77 81 84 80 80 80 81 82
61 66 70 76 80 82 86 87 86 86 85 86 87 83 85 85 95 100 102 103 103 107 107 105 107 106 102 95 90 90 96 93 90 93 95 98 98 86 87 89 86 87 86 82 81
52 59 67 74 80 85 88 93 97 97 95 94 95 91 92 91 89 90 97 103 104 103 107 109 114 113 98 99 95 94 91 90 88 90 94 98 99 90 92 90 83 79 83 81 81
46 51 56 62 73 84 92 98 100 104 102 103 104 100 99 101 95 93 93 94 100 102 106 112 106 90 94 96 98 102 96 90 91 88 90 99 97 90 82 79 79 78 78 81 77
53 52 57 63 71 77 86 93 100 104 102 107 111 109 109 106 103 102 101 100 97 98 103 109 89 91 95 95 99 91 88 88 88 86 88 92 85 78 77 74 73 74 75 75 73
56 57 63 70 74 78 78 81 85 87 93 107 112 115 115 116 110 111 109 108 106 102 103 100 88 89 93 95 95 90 83 86 86 85 82 86 69 69 71 68 69 67 67 65 66
63 62 65 80 82 77 77 78 74 73 83 94 93 106 114 112 113 117 115 115 111 110 112 92 92 95 92 79 87 77 79 82 82 84 81 74 72 54 60 59 54 53 49 52 54
67 67 79 83 76 71 63 63 67 70 81 88 88 89 94 99 107 116 116 121 118 117 114 101 102 101 89 86 89 79 77 81 79 79 70 57 64 43 48 44 41 38 38 45 48
68 74 80 75 68 55 49 48 52 60 65 74 78 83 88 96 97 97 103 115 121 120 115 108 113 104 99 92 85 83 80 78 76 66 48 50 44 35 38 29 29 33 37 40 45
70 77 78 68 59 51 41 37 39 42 48 57 63 72 80 91 95 97 103 106 109 119 118 115 116 109 99 92 88 86 82 77 69 60 49 47 37 37 36 35 32 35 36 41 43
71 78 73 64 53 47 43 37 33 31 39 48 55 60 68 76 79 92 100 101 103 100 106 114 113 110 110 103 101 90 94 71 74 68 63 52 47 41 39 38 32 33 34 37 35
74 81 76 62 52 44 37 34 32 28 30 36 45 51 56 62 67 74 84 91 101 99 95 99 100 107 105 108 104 102 86 82 75 72 62 53 49 47 39 37 32 31 36 32 27
75 79 81 67 53 45 37 30 27 26 27 29 33 38 45 52 57 64 73 77 83 97 99 96 88 97 106 105 102 103 94 86 78 70 62 56 52 52 42 34 36 29 32 22 14
75 82 83 74 58 46 40 32 25 24 23 26 28 32 35 38 45 51 58 65 74 77 84 93 91 93 90 99 101 100 94 85 80 68 65 61 54 50 43 37 33 26 23 20 18
77 78 82 82 69 55 43 36 27 23 20 20 22 26 28 30 36 41 47 56 59 59 68 74 79 90 87 89 89 94 93 91 84 77 66 62 56 55 48 41 39 24 27 24 19
77 79 87 85 78 62 48 37 33 27 22 17 17 17 18 22 27 32 39 40 47 53 57 57 65 78 87 89 91 93 92 89 83 76 65 61 63 61 53 44 44 30 23 26 17
78 77 81 85 85 71 56 41 36 31 24 17 12 11 12 15 20 23 25 34 38 40 46 51 57 66 82 93 88 83 87 88 77 73 68 63 64 68 53 47 38 35 24 19 21
78 78 81 83 85 78 59 45 41 33 26 19 13 9 9 10 14 20 26 28 28 33 39 43 48 59 68 77 78 79 78 80 76 72 70 66 66 68 52 47 41 33 30 20 16
80 76 75 78 83 82 68 52 41 37 29 22 16 9 5 5 9 15 19 22 27 35 33 38 45 53 62 71 74 66 65 67 68 71 69 64 68 68 56 49 40 32 29 23 19
Wind_Direction
237 238 239 238 232 232 233 231 234 236 238 241 241 242 243 245 245 243 246 247 246 246 245 246 245 246 246 247 249 251 252 254 256 259 259 261 262 259 261 264 266 274 272 276 278
241 241 240 239 238 236 234 235 237 238 240 242 243 245 246 245 245 246 247 248 248 247 247 248 247 249 250 250 248 251 250 256 256 258 259 260 260 260 262 264 262 267 275 276 278
247 246 244 242 242 241 240 238 239 240 240 239 244 245 248 249 251 248 246 247 247 248 245 247 250 250 252 252 251 253 253 255 254 256 259 262 264 265 266 271 272 272 272 275 281
252 253 251 247 244 244 242 243 243 240 242 243 241 244 247 248 247 251 253 250 249 249 248 250 252 252 251 250 251 253 255 257 257 258 259 261 263 267 269 274 274 274 273 276 277
262 260 256 253 248 246 243 244 244 244 244 244 242 243 242 245 252 249 251 248 250 251 249 247 248 251 250 252 254 257 257 256 256 259 260 261 264 268 271 273 271 273 273 275 277
262 257 255 256 256 253 249 246 244 244 244 244 243 244 245 244 245 247 249 249 249 249 249 249 247 249 247 252 253 253 252 255 258 261 263 266 267 268 271 273 273 274 275 276 280
267 264 262 259 253 250 251 251 250 248 245 244 244 245 246 245 247 245 242 246 250 250 250 249 250 249 250 250 252 250 253 254 257 262 265 261 258 266 269 270 273 274 275 279 282
268 263 261 260 258 257 254 249 248 249 249 249 248 245 243 244 246 246 248 248 246 246 248 249 251 249 250 252 247 248 250 252 257 258 257 261 260 264 268 269 270 274 276 281 284
270 264 262 259 257 256 256 254 253 250 246 246 247 247 246 245 244 246 246 247 248 249 247 246 248 251 253 251 250 252 256 255 256 261 257 260 262 265 268 269 271 275 278 279 283
274 269 263 260 258 257 256 253 251 251 250 250 246 243 244 245 248 245 245 245 247 247 248 249 251 250 250 254 258 257 254 255 252 258 260 259 262 261 265 268 273 276 278 283 282
286 274 265 259 257 256 256 254 252 250 247 247 248 248 244 242 241 245 247 246 245 245 247 248 249 253 256 251 249 251 256 256 254 258 261 260 262 266 267 271 275 278 278 278 280
300 288 278 271 266 261 254 250 250 248 247 248 246 245 245 245 242 241 242 245 245 245 246 246 249 252 245 248 250 256 256 257 257 257 258 260 261 267 272 272 274 275 274 279 279
310 298 288 280 274 268 264 260 255 252 250 247 247 245 244 243 244 243 243 241 242 244 244 245 247 244 248 250 254 256 257 254 255 252 259 264 267 270 269 271 270 271 275 276 279
317 305 296 290 282 274 267 265 264 264 259 250 248 245 243 244 241 242 241 242 244 242 243 243 242 245 248 251 254 254 255 254 255 255 263 266 269 267 265 268 267 274 277 278 277
323 315 305 297 287 284 282 278 269 260 256 254 253 251 248 247 245 243 242 241 241 242 244 243 242 242 244 248 250 250 249 252 254 258 258 262 263 263 267 265 275 279 281 279 276
327 320 316 303 303 299 288 276 269 262 254 250 247 247 246 245 246 246 244 242 240 241 241 242 243 244 243 239 245 245 249 251 253 255 259 260 262 267 265 277 276 282 278 279 279
330 328 320 314 310 305 295 281 268 260 257 254 253 248 243 244 243 243 243 243 242 241 241 239 241 242 242 242 243 245 247 251 253 259 263 256 262 257 268 271 282 279 281 285 283
336 337 329 325 322 316 308 291 274 264 256 253 250 248 245 241 237 238 240 239 240 239 241 239 239 241 242 243 242 240 243 247 253 257 254 254 260 254 267 277 279 282 287 283 284
343 345 339 334 330 324 316 307 291 270 256 247 244 242 243 242 239 236 237 238 238 240 236 237 239 238 238 238 239 240 239 243 245 250 253 256 260 261 265 273 282 286 290 285 283
347 351 349 344 339 334 323 311 299 285 269 255 250 246 242 241 239 239 238 237 236 238 237 236 233 236 237 239 237 240 240 237 244 247 252 251 256 259 263 271 277 280 289 283 269
351 356 356 354 350 346 338 324 310 291 277 263 252 247 244 242 241 237 236 236 235 234 235 233 229 230 233 237 236 237 238 240 240 239 244 245 252 257 258 261 276 286 285 263 233
355 356 1 1 357 356 346 340 321 302 287 276 266 253 246 242 239 237 235 234 235 233 232 232 228 227 227 230 230 232 232 233 238 241 243 243 245 257 259 262 269 277 273 237 213
355 358 1 6 3 2 355 349 337 323 307 286 268 258 250 243 237 233 231 231 233 233 231 230 227 223 222 225 228 231 230 232 232 230 232 237 243 249 251 255 262 273 266 221 217
357 358 3 7 6 3 2 355 349 343 331 309 282 267 250 240 235 235 234 230 228 227 227 225 222 219 218 219 220 220 223 227 228 229 229 234 238 244 244 248 257 271 235 215 219
359 360 1 5 6 6 4 359 356 354 347 333 305 274 250 244 240 232 230 222 217 220 219 216 216 213 214 214 215 217 219 219 222 222 224 227 237 241 240 244 252 260 207 213 216
1 0 360 3 7 6 6 6 3 3 358 350 344 330 290 254 232 220 213 214 207 205 207 207 208 209 211 212 212 211 213 216 212 214 217 220 229 238 237 238 243 255 209 209 220
2 1 360 1 5 7 8 7 9 7 5 359 3 359 336 270 230 222 216 209 195 197 195 196 198 200 206 203 206 204 206 209 213 214 216 217 225 234 232 230 241 249 207 211 225
Height
10731 10735 10738 10742 10746 10750 10753 10758 10762 10766 10769 10773 10777 10780 10784 10789 10792 10802 10811 10804 10814 10818 10823 10828 10831 10833 10837 10843 10843 10842 10858 10865 10863 10860 10862 10862 10866 10869 10868 10869 10873 10871 10871 10864 10867
10724 10726 10728 10730 10734 10737 10741 10745 10749 10751 10755 10759 10762 10765 10769 10773 10778 10791 10784 10794 10798 10804 10809 10811 10815 10818 10827 10830 10831 10834 10846 10852 10846 10847 10851 10854 10854 10858 10858 10862 10864 10863 10859 10857 10860
10714 10716 10717 10719 10720 10723 10726 10729 10732 10734 10739 10743 10747 10749 10753 10758 10762 10768 10778 10778 10784 10788 10792 10796 10802 10807 10814 10816 10818 10822 10839 10832 10836 10836 10837 10841 10845 10845 10847 10851 10851 10852 10852 10848 10848
10705 10705 10706 10707 10708 10710 10711 10713 10715 10718 10721 10724 10729 10733 10736 10740 10744 10759 10762 10762 10765 10767 10775 10781 10785 10793 10799 10803 10799 10808 10823 10819 10824 10822 10825 10833 10832 10836 10836 10839 10836 10839 10839 10838 10836
10695 10694 10693 10693 10693 10694 10696 10697 10698 10701 10704 10706 10710 10715 10719 10726 10734 10738 10740 10746 10749 10751 10758 10763 10773 10775 10787 10785 10784 10806 10808 10800 10810 10809 10816 10818 10823 10826 10827 10823 10825 10825 10826 10826 10826
10685 10682 10680 10679 10678 10678 10678 10680 10681 10682 10685 10688 10691 10695 10701 10715 10707 10709 10727 10729 10728 10730 10738 10746 10759 10754 10768 10770 10776 10789 10782 10792 10797 10801 10805 10804 10809 10809 10816 10809 10809 10812 10815 10815 10818
10670 10667 10665 10663 10662 10661 10660 10660 10660 10662 10665 10668 10669 10672 10684 10694 10683 10687 10704 10709 10709 10711 10722 10728 10731 10731 10757 10758 10768 10764 10769 10778 10794 10793 10801 10783 10789 10803 10800 10789 10798 10799 10804 10807 10807
10653 10650 10647 10645 10643 10641 10640 10640 10640 10641 10643 10645 10648 10654 10666 10657 10660 10669 10675 10687 10687 10693 10700 10705 10706 10721 10729 10741 10738 10751 10750 10773 10789 10777 10785 10759 10781 10797 10780 10780 10789 10792 10796 10800 10798
10634 10630 10626 10624 10622 10619 10617 10616 10618 10618 10620 10624 10625 10632 10638 10638 10641 10645 10653 10664 10665 10674 10679 10681 10683 10700 10706 10718 10727 10739 10753 10762 10761 10753 10764 10746 10752 10783 10775 10770 10781 10784 10786 10786 10787
10612 10607 10604 10600 10597 10595 10592 10590 10591 10593 10596 10597 10598 10609 10607 10617 10618 10625 10628 10636 10640 10649 10654 10659 10659 10672 10688 10707 10729 10727 10715 10735 10745 10744 10740 10739 10741 10769 10766 10758 10770 10774 10772 10772 10771
10589 10583 10577 10573 10571 10568 10564 10560 10561 10561 10567 10570 10570 10582 10585 10587 10595 10600 10603 10612 10617 10625 10635 10632 10627 10658 10694 10681 10690 10688 10707 10724 10733 10729 10722 10724 10729 10752 10752 10756 10755 10760 10753 10754 10756
10572 10564 10556 10549 10541 10534 10531 10526 10523 10527 10539 10541 10539 10551 10555 10556 10572 10577 10579 10584 10591 10603 10606 10603 10630 10664 10640 10654 10666 10682 10693 10707 10710 10706 10702 10709 10720 10737 10740 10741 10740 10741 10738 10740 10743
10554 10546 10536 10526 10515 10506 10499 10495 10494 10498 10511 10509 10509 10522 10520 10529 10542 10551 10554 10559 10567 10574 10581 10583 10637 10607 10628 10641 10646 10669 10681 10684 10691 10683 10692 10695 10714 10730 10722 10726 10724 10723 10729 10727 10727
10539 10528 10514 10500 10487 10473 10469 10468 10466 10469 10479 10473 10473 10482 10489 10498 10514 10517 10527 10536 10544 10553 10552 10573 10599 10607 10609 10626 10634 10649 10655 10658 10670 10672 10690 10683 10712 10712 10704 10711 10709 10719 10715 10715 10711
10521 10507 10493 10468 10452 10449 10442 10435 10435 10439 10440 10426 10443 10449 10467 10475 10478 10489 10498 10506 10520 10526 10523 10577 10578 10581 10592 10623 10608 10640 10622 10644 10652 10664 10673 10686 10689 10705 10697 10691 10706 10705 10703 10699 10697
10504 10487 10464 10440 10428 10410 10404 10398 10397 10401 10394 10396 10407 10418 10427 10437 10445 10451 10475 10479 10491 10499 10513 10552 10550 10554 10586 10589 10595 10608 10619 10626 10636 10649 10663 10675 10675 10696 10677 10694 10694 10692 10690 10688 10687
10487 10466 10438 10418 10398 10388 10377 10370 10368 10366 10367 10368 10379 10390 10402 10402 10418 10430 10438 10449 10465 10472 10498 10526 10516 10541 10556 10575 10589 10595 10602 10613 10623 10642 10668 10652 10673 10679 10670 10684 10684 10684 10682 10680 10678
10470 10448 10415 10396 10378 10365 10358 10351 10347 10349 10349 10348 10353 10358 10366 10369 10385 10399 10405 10415 10428 10440 10467 10490 10501 10525 10551 10564 10574 10580 10589 10603 10619 10633 10646 10647 10663 10665 10668 10673 10675 10675 10674 10672 10671
10459 10433 10406 10382 10368 10353 10343 10336 10330 10330 10329 10328 10327 10334 10339 10345 10360 10365 10375 10386 10403 10421 10440 10456 10482 10505 10517 10536 10542 10570 10561 10609 10604 10618 10628 10643 10651 10655 10659 10664 10666 10667 10668 10666 10663
10445 10421 10396 10376 10358 10345 10334 10325 10319 10316 10315 10315 10317 10321 10324 10328 10339 10348 10353 10369 10379 10394 10413 10432 10464 10481 10498 10510 10532 10536 10574 10576 10596 10605 10623 10634 10642 10646 10654 10656 10660 10662 10662 10659 10658
10438 10420 10394 10369 10352 10337 10327 10318 10310 10306 10303 10303 10304 10306 10310 10315 10323 10328 10333 10345 10358 10366 10388 10406 10439 10457 10472 10490 10512 10527 10548 10570 10584 10598 10614 10626 10631 10635 10644 10652 10652 10657 10656 10655 10655
10432 10411 10388 10367 10347 10334 10321 10313 10305 10299 10297 10294 10295 10294 10297 10302 10307 10314 10321 10327 10332 10347 10367 10381 10412 10429 10455 10467 10490 10508 10534 10554 10567 10594 10605 10611 10622 10628 10638 10643 10649 10651 10651 10652 10651
10426 10412 10394 10369 10349 10331 10319 10309 10303 10296 10293 10289 10286 10285 10287 10291 10294 10300 10304 10310 10323 10338 10349 10364 10392 10412 10435 10449 10477 10496 10518 10536 10558 10566 10590 10602 10614 10616 10628 10635 10640 10647 10646 10648 10649
10426 10405 10378 10361 10347 10334 10319 10308 10301 10294 10288 10285 10281 10281 10281 10281 10284 10289 10294 10305 10315 10324 10335 10354 10372 10387 10411 10429 10441 10464 10496 10519 10542 10562 10585 10595 10598 10605 10619 10627 10631 10641 10642 10644 10645
10424 10407 10390 10373 10349 10333 10320 10310 10301 10292 10286 10282 10279 10278 10278 10278 10280 10285 10291 10295 10304 10317 10327 10339 10353 10372 10384 10400 10429 10459 10478 10502 10531 10557 10570 10587 10587 10591 10611 10620 10630 10633 10638 10639 10642
10424 10406 10386 10374 10358 10341 10324 10311 10300 10293 10287 10283 10279 10278 10278 10278 10279 10281 10282 10289 10302 10310 10318 10332 10349 10363 10380 10404 10427 10446 10471 10497 10521 10540 10556 10572 10579 10582 10602 10616 10622 10629 10633 10635 10639
10425 10411 10396 10379 10363 10344 10327 10315 10304 10295 10290 10286 10282 10279 10278 10279 10280 10282 10285 10291 10298 10301 10317 10329 10342 10355 10371 10393 10418 10450 10477 10498 10522 10536 10552 10566 10569 10573 10592 10608 10617 10625 10629 10631 10635